This is the latest recevied weather packets stored in our database for station/object PY2UEP-1. If no packets are shown the sender has not sent any weather packets the latest 10 day(s).
| Time | Temp. | Humidity | Pressure | Rain* | Wind** | Luminosity | Snow |
|---|---|---|---|---|---|---|---|
| 1787733908 | 18.89° C | 78% | 1017.1 hPa | 3.81 mm | - | - | - |
| 1787733608 | 18.89° C | 79% | 1017.1 hPa | 3.81 mm | - | - | - |
| 1787733308 | 18.33° C | 84% | 1017 hPa | 3.81 mm | - | - | - |
| 1787733008 | 17.78° C | 88% | 1016.9 hPa | 3.81 mm | - | - | - |
| 1787732708 | 17.78° C | 88% | 1016.7 hPa | 3.81 mm | - | - | - |
| 1787732408 | 17.78° C | 88% | 1016.4 hPa | 3.81 mm | - | - | - |
| 1787732108 | 17.78° C | 89% | 1016.4 hPa | 3.81 mm | - | - | - |
| 1787731808 | 17.78° C | 90% | 1016.4 hPa | 3.81 mm | - | - | - |
| 1787731509 | 17.78° C | 89% | 1016.2 hPa | 3.81 mm | - | - | - |
| 1787731208 | 17.22° C | 93% | 1016.4 hPa | 3.81 mm | - | - | - |
| 1787730908 | 17.22° C | 93% | 1016.2 hPa | 3.81 mm | - | - | - |
| 1787730608 | 17.22° C | 93% | 1016 hPa | 3.81 mm | - | - | - |
| 1787730308 | 17.22° C | 92% | 1016 hPa | 3.81 mm | - | - | - |
| 1787730008 | 17.22° C | 92% | 1016.2 hPa | 3.56 mm | - | - | - |
| 1787729708 | 17.22° C | 93% | 1017 hPa | 3.3 mm | - | - | - |
| 1787729408 | 17.22° C | 92% | 1017 hPa | 3.3 mm | - | - | - |
| 1787729108 | 17.22° C | 92% | 1017 hPa | 3.05 mm | - | - | - |
| 1787728808 | 17.22° C | 92% | 1017 hPa | 3.05 mm | - | - | - |
| 1787728508 | 17.22° C | 92% | 1017.1 hPa | 2.79 mm | - | - | - |
| 1787728208 | 17.22° C | 90% | 1017.1 hPa | 2.79 mm | - | - | - |
| 1787727908 | 17.78° C | 90% | 1017 hPa | 2.79 mm | - | - | - |
| 1787727608 | 17.22° C | 90% | 1017 hPa | 2.54 mm | - | - | - |
| 1787727308 | 17.22° C | 92% | 1016.9 hPa | 2.54 mm | - | - | - |
| 1787727008 | 17.22° C | 93% | 1016.7 hPa | 2.54 mm | - | - | - |
| 1787726708 | 17.22° C | 92% | 1016.7 hPa | 2.54 mm | - | - | - |
* Rain since midnight (hover to see other rain measurements)
** Current wind speed in m/s (hover to see current wind gust speed)